Location: Espelette
(43.3402°N, 1.4474°W)
Time: 22:13:04
(UTC+00:00)

DELTA 2 R/B (1) - Pass Details

Date: 19 May 2025
Orbit: 787 x 800 km, 39.6° (Epoch: 18 June)

Event Time Altitude Azimuth Distance (km) Brightness Sun altitude
Rises 20:25:07 0° 227° (SW) 3,263 6.9 -9.5°
Reaches altitude 10° 20:27:48 10° 218° (SW) 2,338 6.0 -9.8°
Maximum altitude 20:32:40 33° 156° (SSE) 1,310 4.2 -10.5°
Drops below altitude 10° 20:37:33 10° 94° (E) 2,350 5.6 -11.2°
Enters shadow 20:38:29 - 90° (E) 2,664 5.9 -11.3°
